Flag for Germany Weather past 2 weeks in Schorndorf, Baden-Württemberg, Germany

Now
46 °F

Passing clouds.


Feels Like: 46 °F
Forecast: 35 / 60 °F
Wind: 2 mph from Southwest

Location: Stuttgart-Echterdingen

Current Time: Apr 22, 2015 at 2:23:53 AM

Latest Report: Apr 22, 2015 at 2:00 AM


Visibility: 31 mi

Pressure: 30.37 "Hg

Humidity: 61%

Dew point: 34 °F

Location of SchorndorfLocation

Historic Weather in Schorndorf — Graph

°F

Schorndorf temperature yesterday

Maximum temperature yesterday: 69 °F (at 6:00 PM)
Minimum temperature yesterday: 38 °F (at 6:00 AM)
Average temperature yesterday: 55 °F

Past Weeks' High & Low Weather Summary

 TemperatureHumidityPressure
High77 °F (Apr 15, 4:00 PM)93% (Apr 10, 7:00 AM)30.66 "Hg (Apr 10, 7:00 AM)
Low29 °F (Apr 7, 7:00 AM)17% (Apr 15, 3:00 PM)29.86 "Hg (Apr 16, 7:00 PM)
Average52 °F56%30.26 "Hg
* Reported Apr 7 1:00 AM — Apr 22 1:00 AM, Schorndorf, Weather by CustomWeather, © 2015

Note: Actual official high and low records may vary slightly from our data, if they occured in-between our weather recording intervals... More about our weather records

Advertising

Schorndorf weather history for previous 24 hours

 ConditionsComfort  
Time TempWeatherWind HumidityBarometerVisibility
1:00 AM
Wed, Apr 22
49 °FPassing clouds.1 mph57%30.37 "Hg31 mi
12:00 AM50 °FPassing clouds.1 mph55%30.37 "Hg31 mi
10:00 PM
Tue, Apr 21
60 °FPassing clouds.3 mph37%30.34 "Hg37 mi
9:00 PM64 °FPassing clouds.2 mph28%30.33 "Hg37 mi
8:00 PM66 °FScattered clouds.2 mph27%30.30 "Hg37 mi
7:00 PM68 °FScattered clouds.2 mph24%30.29 "Hg37 mi
6:00 PM69 °FScattered clouds.2 mph24%30.30 "Hg37 mi
5:00 PM68 °FScattered clouds.1 mph27%30.31 "Hg37 mi
4:00 PM67 °FPassing clouds.2 mph28%30.32 "Hg37 mi
3:00 PM67 °FPassing clouds.3 mph31%30.34 "Hg37 mi
2:00 PM64 °FPassing clouds.2 mph31%30.36 "Hg37 mi
1:00 PM63 °FScattered clouds.2 mph32%30.38 "Hg37 mi
12:00 PM61 °FScattered clouds.2 mph46%30.39 "Hg25 mi
11:00 AM57 °FPassing clouds.2 mph47%30.40 "Hg22 mi
10:00 AM53 °FScattered clouds.1 mph57%30.40 "Hg22 mi
9:00 AM48 °FScattered clouds.1 mph66%30.41 "Hg25 mi
8:00 AM41 °FScattered clouds.1 mph80%30.42 "Hg25 mi
7:00 AM38 °FPassing clouds.1 mph79%30.40 "Hg25 mi
6:00 AM38 °FPassing clouds.1 mph78%30.39 "Hg28 mi
4:00 AM42 °FClear.1 mph70%30.38 "Hg28 mi
3:00 AM42 °FClear.1 mph70%30.36 "Hg28 mi
2:00 AM43 °FClear.1 mph66%30.36 "Hg28 mi
Weather by CustomWeather, © 2015

See weather overviewHow to use our weather pages